Showing default

3CAT-5/B (TYVAK-0162), 46293

Orbit data source: Space-Track

3CAT-5/B (TYVAK-0162), 46293 is a payload satellite owned by UPC (ES) in SSO that was launched on Thu, 03 Sep 2020 UTC via a VEGA launch vehicle from the French Guiana (FRGUI). Payload-class satellites include a variety of spacecraft equipped with specific instruments for various scientific and technological missions. These include communications satellites like Starlink; space stations such as the ISS; scientific satellites like the Hubble; Earth observation satellites from companies like Planet Labs, Umbra, and HawkEye 360; GPS; miniature CubeSats for education and research; and military/defense satellites.

Loading next visibility...
Identifier
46293, 2020-061X
Orbit
SSO
Country
Flag of ESES / SPN
Related business
Manufacturer
UPC
Mission
Non-operational Amateur Technology
Bus & Motor
CUBESAT 6U, Unknown motor
Mass
~10 kg wet, ~10 kg dry
Launch date (UTC)
2020-09-03 (6 years ago)
Launch vehicle
VEGA
Launch site
French Guiana (FRGUI)
Object type
Payload
Rocket body
Debris
Shape & HBR
Box, Unknown HBR
Radar Cross Section
0.080 m², Medium (>0.1 m² and < 1m²)

Expand to show TLE details & history
Last TLE update: 7 hours ago

TLE from 7 hours ago
0 3CAT-5/B (TYVAK-0162)
1 46293U 20061X   26166.15510801  .00015039  00000-0  29515-3 0  9998
2 46293  97.2404 230.0281 0003406 118.9923 241.1669 15.47419037320740
Epoch: 2026-06-15T03:43Z
TLE epoch observation values (Epoch: 2026-06-15T03:43:21.332Z)
Latitude
-0.00001°
Longitude
-89.25634°
Altitude
428.53 km
Speed
7.654 km/s
True Right ascension
15h 20m 06s
True Declination
0° 00' 00"
Sunlit
Object was in full shadow at epoch
Visualization orbit readout
Latitude
Unknown
Longitude
Unknown
Altitude
Unknown
Speed
Unknown
Apparent Right ascension
Unknown
Apparent Declination
Unknown
Sunlit
N/A
Visualization observer readout
Local Sidereal Time
21:32:09
Azimuth
Unknown
Elevation
Unknown
Doppler factor
Unknown
Orbital elements
Apogee altitude
423.518 km
Perigee altitude
418.886 km
Semi-major axis
6,799.339 km
Eccentricity
0.00034
Inclination
97.2404°
RAAN
230.0281°
Arg. of periapsis
118.9923°
True anomaly
241.13272°
Mean anomaly
241.1669°
Eccentric anomaly
241.14981°
Mean motion
3.87118 °/min
Orbital period
92.99 mins
BSTAR
0.00029515
Loading maneuver chart data...
Computing Atmospheric mass density...

Documentation

Showing up to 5 results
|